Retour au catalogue

GRIFON-3

ActifScienceSSO
NORAD 67282·PAYLOAD·🇷🇺 Russia
Ce nom de satellite n'a pas encore été confirmé par des sources officielles.

Lancé Dec 28, 2025 depuis Vostochny Cosmodrome

Loading…

Prochains Passages (prochaines 24 heures)

TLE

FraisSource: Space-Track

Époque: Sep 14, 2026, 11:20 UTC

1 67282U 25313AL  26257.47289378  .00004170  00000-0  17511-3 0  9999
2 67282  97.3856 330.8577 0012007  50.6832 309.5468 15.23939382 39554

Suivez GRIFON-3 en temps réel avec AllMySat

Download on the App Store